LA5NNA Weather Reports


time (UTC)temp
C
wind
direction
speed
KPH
gust
KPH
rain 1hr
cm
rain 24hr
cm
rain mn
cm
humidity
%
barometer
mb
20260507223507 7 68 4.8 8.0 0.00 0.00 0.00 69 1018.0
20260507223012 8 84 3.2 8.0 0.00 0.00 0.00 69 1018.0
20260507222508 8 86 3.2 9.7 0.00 0.00 0.00 69 1017.9
20260507222007 8 81 3.2 9.7 0.00 0.00 0.00 69 1018.0
20260507221507 8 79 4.8 9.7 0.00 0.00 0.00 69 1017.9
20260507221008 8 76 3.2 9.7 0.00 0.00 0.00 69 1017.9
20260507220012 8 51 4.8 8.0 0.00 0.00 0.00 68 1018.1
20260507215507 8 91 3.2 4.8 0.00 0.00 0.00 68 1018.0
20260507215008 8 65 3.2 8.0 0.00 0.00 0.00 68 1018.0
20260507214508 8 61 3.2 8.0 0.00 0.00 0.00 68 1018.0
20260507214008 8 67 3.2 8.0 0.00 0.00 0.00 68 1018.0
20260507213011 8 74 4.8 8.0 0.00 0.00 0.00 68 1018.0
20260507212507 8 79 4.8 8.0 0.00 0.00 0.00 68 1018.1
20260507212008 8 93 3.2 8.0 0.00 0.00 0.00 68 1017.9
20260507211507 8 72 3.2 8.0 0.00 0.00 0.00 68 1018.0
20260507211007 8 63 3.2 8.0 0.00 0.00 0.00 68 1017.9
20260507210507 8 75 3.2 8.0 0.00 0.00 0.00 68 1017.8
20260507210011 8 72 4.8 8.0 0.00 0.00 0.00 68 1017.8
20260507205507 8 76 4.8 8.0 0.00 0.00 0.00 68 1017.8
20260507205007 8 73 3.2 8.0 0.00 0.00 0.00 68 1017.8
20260507204507 8 68 3.2 8.0 0.00 0.00 0.00 68 1017.7
20260507204008 8 75 3.2 4.8 0.00 0.00 0.00 68 1017.8
20260507203507 8 104 3.2 8.0 0.00 0.00 0.00 68 1017.7
20260507202508 8 120 3.2 8.0 0.00 0.00 0.00 68 1017.6
20260507201505 8 103 3.2 8.0 0.00 0.00 0.00 68 1017.6
20260507201008 8 123 3.2 8.0 0.00 0.00 0.00 68 1017.6
20260507200508 8 146 3.2 8.0 0.00 0.00 0.00 68 1017.5
20260507200011 8 92 3.2 9.7 0.00 0.00 0.00 68 1017.5
20260507195508 8 103 3.2 8.0 0.00 0.00 0.00 69 1017.6
20260507195007 8 142 3.2 8.0 0.00 0.00 0.00 69 1017.6
20260507194507 8 112 3.2 9.7 0.00 0.00 0.00 69 1017.5
20260507194007 8 85 3.2 8.0 0.00 0.00 0.00 69 1017.5
20260507193507 8 101 4.8 9.7 0.00 0.00 0.00 69 1017.3
20260507193011 8 117 4.8 11.3 0.00 0.00 0.00 69 1017.3
20260507192507 8 127 4.8 9.7 0.00 0.00 0.00 69 1017.2
20260507192007 8 101 4.8 9.7 0.00 0.00 0.00 68 1017.1
20260507191507 8 105 4.8 9.7 0.00 0.00 0.00 68 1017.0
20260507191007 8 138 4.8 11.3 0.00 0.00 0.00 68 1017.0
20260507190507 8 115 4.8 11.3 0.00 0.00 0.00 68 1016.9
20260507190011 8 124 3.2 11.3 0.00 0.00 0.00 68 1016.8
20260507185507 9 104 6.4 11.3 0.00 0.00 0.00 68 1016.8
20260507184508 9 111 8.0 14.5 0.00 0.00 0.00 68 1016.8
20260507184008 9 128 6.4 11.3 0.00 0.00 0.00 68 1016.8
20260507183507 9 128 4.8 12.9 0.00 0.00 0.00 68 1016.8
20260507183011 9 133 6.4 19.3 0.00 0.00 0.00 68 1016.9
20260507182007 9 146 9.7 19.3 0.00 0.00 0.00 67 1016.9
20260507181507 9 131 8.0 14.5 0.00 0.00 0.00 67 1016.8
20260507181007 9 106 8.0 14.5 0.00 0.00 0.00 67 1016.8
20260507180507 9 116 9.7 20.9 0.00 0.00 0.00 67 1016.8
20260507180010 9 126 4.8 12.9 0.00 0.00 0.00 67 1016.8
20260507175507 9 168 6.4 12.9 0.00 0.00 0.00 66 1016.8
20260507175007 9 177 9.7 16.1 0.00 0.00 0.00 66 1016.8
20260507174507 10 160 9.7 16.1 0.00 0.00 0.00 66 1016.8
20260507174007 10 182 9.7 22.5 0.00 0.00 0.00 66 1016.8
20260507173507 10 182 11.3 19.3 0.00 0.00 0.00 66 1016.8
20260507173011 10 184 9.7 19.3 0.00 0.00 0.00 66 1016.7
20260507172507 10 173 11.3 19.3 0.00 0.00 0.00 66 1016.8
20260507171507 10 172 11.3 20.9 0.00 0.00 0.00 66 1016.8
20260507170506 10 178 12.9 22.5 0.00 0.00 0.00 66 1016.7
20260507165507 10 179 9.7 22.5 0.00 0.00 0.00 65 1016.7
20260507165006 10 183 11.3 20.9 0.00 0.00 0.00 65 1016.8
20260507164506 10 182 11.3 20.9 0.00 0.00 0.00 65 1016.8
20260507164007 10 165 14.5 20.9 0.00 0.00 0.00 65 1016.8
20260507163507 10 187 12.9 19.3 0.00 0.00 0.00 64 1016.7
20260507163010 10 173 11.3 20.9 0.00 0.00 0.00 64 1016.7
20260507162507 10 178 11.3 20.9 0.00 0.00 0.00 63 1016.7
20260507162007 10 184 14.5 20.9 0.00 0.00 0.00 63 1016.6
20260507161506 10 182 12.9 22.5 0.00 0.00 0.00 63 1016.6
20260507160507 10 187 14.5 22.5 0.00 0.00 0.00 63 1016.6
20260507160010 10 184 14.5 22.5 0.00 0.00 0.00 63 1016.5
20260507155506 10 177 14.5 20.9 0.00 0.00 0.00 63 1016.5
20260507154507 10 187 14.5 22.5 0.00 0.00 0.00 63 1016.5
20260507154009 10 179 14.5 20.9 0.00 0.00 0.00 63 1016.5
20260507153507 10 181 14.5 22.5 0.00 0.00 0.00 62 1016.4
20260507152007 10 183 16.1 24.1 0.00 0.00 0.00 61 1016.5
20260507150507 11 184 14.5 22.5 0.00 0.00 0.00 59 1016.7
20260507150010 11 179 14.5 20.9 0.00 0.00 0.00 59 1016.6
20260507145506 11 182 16.1 20.9 0.00 0.00 0.00 59 1016.7
20260507144507 11 186 14.5 19.3 0.00 0.00 0.00 58 1016.7
20260507144006 11 186 11.3 19.3 0.00 0.00 0.00 57 1016.7
20260507143506 11 185 11.3 20.9 0.00 0.00 0.00 57 1016.7
20260507142507 11 166 11.3 22.5 0.00 0.00 0.00 57 1016.7
20260507142006 11 167 11.3 22.5 0.00 0.00 0.00 57 1016.6
20260507141507 11 167 12.9 22.5 0.00 0.00 0.00 57 1016.8
20260507140506 11 171 9.7 19.3 0.00 0.00 0.00 57 1016.7
20260507140011 12 156 14.5 24.1 0.00 0.00 0.00 57 1016.7
20260507135506 12 154 9.7 22.5 0.00 0.00 0.00 57 1016.7
20260507135007 12 170 12.9 20.9 0.00 0.00 0.00 56 1016.7
20260507134506 12 159 11.3 20.9 0.00 0.00 0.00 56 1016.7
20260507134006 12 158 12.9 20.9 0.00 0.00 0.00 56 1016.6
20260507133506 12 161 11.3 24.1 0.00 0.00 0.00 56 1016.7
20260507133011 12 173 11.3 25.7 0.00 0.00 0.00 56 1016.8
20260507132507 12 160 12.9 25.7 0.00 0.00 0.00 56 1016.8
20260507132006 12 171 11.3 20.9 0.00 0.00 0.00 56 1016.7
20260507131507 12 162 11.3 22.5 0.00 0.00 0.00 56 1016.7
20260507131007 12 171 11.3 20.9 0.00 0.00 0.00 56 1016.7
20260507130010 12 112 11.3 19.3 0.00 0.00 0.00 56 1016.7
20260507125506 12 128 8.0 24.1 0.00 0.00 0.00 56 1016.7
20260507125007 12 133 11.3 24.1 0.00 0.00 0.00 55 1016.7
20260507124507 12 170 11.3 22.5 0.00 0.00 0.00 55 1016.7
20260507124007 12 160 12.9 20.9 0.00 0.00 0.00 55 1016.8
20260507123506 12 101 8.0 19.3 0.00 0.00 0.00 56 1016.7
20260507123010 12 123 9.7 19.3 0.00 0.00 0.00 56 1016.7
20260507122007 12 146 11.3 19.3 0.00 0.00 0.00 56 1016.7
20260507121506 12 131 11.3 19.3 0.00 0.00 0.00 55 1016.7
20260507120506 12 106 11.3 19.3 0.00 0.00 0.00 56 1016.6
20260507120010 12 96 9.7 19.3 0.00 0.00 0.00 56 1016.5
20260507115507 12 99 9.7 19.3 0.00 0.00 0.00 55 1016.5
20260507115006 12 140 8.0 16.1 0.00 0.00 0.00 56 1016.6
20260507113506 12 139 8.0 22.5 0.00 0.00 0.00 55 1016.6
20260507113010 12 131 14.5 22.5 0.00 0.00 0.00 55 1016.6
20260507112506 12 124 11.3 19.3 0.00 0.00 0.00 55 1016.5
20260507112007 12 121 9.7 20.9 0.00 0.00 0.00 55 1016.5
20260507111507 12 150 16.1 22.5 0.00 0.00 0.00 55 1016.5
20260507111007 12 141 9.7 19.3 0.00 0.00 0.00 55 1016.4
20260507110507 12 156 11.3 20.9 0.00 0.00 0.00 55 1016.5
20260507110010 12 149 14.5 25.7 0.00 0.00 0.00 55 1016.5
20260507105507 11 116 11.3 24.1 0.00 0.00 0.00 55 1016.6
20260507104006 11 135 14.5 24.1 0.00 0.00 0.00 54 1016.3
20260507103506 11 141 11.3 24.1 0.00 0.00 0.00 55 1016.4
20260507103011 11 161 8.0 14.5 0.00 0.00 0.00 55 1016.3
20260507102506 11 138 12.9 24.1 0.00 0.00 0.00 55 1016.3
20260507102007 11 104 9.7 19.3 0.00 0.00 0.00 55 1016.3
20260507101507 11 100 4.8 16.1 0.00 0.00 0.00 54 1016.4
20260507101007 11 129 8.0 16.1 0.00 0.00 0.00 54 1016.4
20260507100506 11 143 9.7 16.1 0.00 0.00 0.00 54 1016.3
20260507100010 11 138 11.3 19.3 0.00 0.00 0.00 54 1016.3
20260507095507 11 137 6.4 16.1 0.00 0.00 0.00 54 1016.1
20260507095006 11 144 11.3 19.3 0.00 0.00 0.00 54 1016.2
20260507094506 11 154 9.7 20.9 0.00 0.00 0.00 54 1016.1
20260507094007 11 146 11.3 24.1 0.00 0.00 0.00 53 1016.1
20260507092506 11 110 11.3 19.3 0.00 0.00 0.00 52 1016.0
20260507091506 11 112 8.0 16.1 0.00 0.00 0.00 52 1016.0
20260507091007 10 147 8.0 19.3 0.00 0.00 0.00 51 1016.0
20260507090507 10 171 9.7 14.5 0.00 0.00 0.00 51 1015.9
20260507090010 10 156 11.3 19.3 0.00 0.00 0.00 52 1016.0
20260507085506 10 119 6.4 19.3 0.00 0.00 0.00 52 1015.9
20260507084006 10 77 9.7 14.5 0.00 0.00 0.00 52 1016.2
20260507083506 10 90 6.4 14.5 0.00 0.00 0.00 51 1016.1
20260507081006 9 122 6.4 12.9 0.00 0.00 0.00 51 1015.8
20260507080506 9 87 8.0 12.9 0.00 0.00 0.00 50 1015.9
20260507080010 9 83 8.0 14.5 0.00 0.00 0.00 50 1015.7
20260507075507 8 106 8.0 19.3 0.00 0.00 0.00 51 1015.7
20260507074509 8 95 6.4 14.5 0.00 0.00 0.00 53 1015.6
20260507074008 8 86 8.0 14.5 0.00 0.00 0.00 53 1015.7
20260507073012 7 110 6.4 16.1 0.00 0.00 0.00 54 1015.6
20260507072509 7 105 8.0 14.5 0.00 0.00 0.00 55 1015.6
20260507072009 7 118 8.0 12.9 0.00 0.00 0.00 56 1015.6
20260507071509 7 134 6.4 11.3 0.00 0.00 0.00 57 1015.4
20260507071009 6 158 4.8 9.7 0.00 0.00 0.00 58 1015.4
20260507070509 6 153 3.2 8.0 0.00 0.00 0.00 58 1015.4
20260507070013 6 76 4.8 9.7 0.00 0.00 0.00 58 1015.5
20260507065508 6 97 3.2 8.0 0.00 0.00 0.00 58 1015.5
20260507065009 6 98 3.2 9.7 0.00 0.00 0.00 58 1015.5
20260507064508 6 59 4.8 9.7 0.00 0.00 0.00 58 1015.5
20260507064009 5 68 6.4 12.9 0.00 0.00 0.00 58 1015.5
20260507063508 5 59 4.8 9.7 0.00 0.00 0.00 59 1015.4
20260507063012 5 47 4.8 11.3 0.00 0.00 0.00 60 1015.3
20260507062508 5 63 4.8 11.3 0.00 0.00 0.00 60 1015.3
20260507061508 5 58 4.8 12.9 0.00 0.00 0.00 60 1015.3
20260507061009 5 13 8.0 16.1 0.00 0.00 0.00 61 1015.2
20260507060508 5 15 4.8 12.9 0.00 0.00 0.00 61 1015.2
20260507060012 5 41 3.2 9.7 0.00 0.00 0.00 61 1015.2
20260507054508 4 52 3.2 8.0 0.00 0.00 0.00 61 1015.0
20260507053508 4 59 3.2 4.8 0.00 0.00 0.00 61 1015.2
20260507053012 4 96 1.6 3.2 0.00 0.00 0.00 61 1015.2
20260507052508 4 317 3.2 3.2 0.00 0.00 0.00 61 1015.2
20260507052008 4 5 1.6 3.2 0.00 0.00 0.00 61 1015.1
20260507050508 4 335 1.6 3.2 0.00 0.00 0.00 60 1015.0
20260507050012 4 322 1.6 3.2 0.00 0.00 0.00 60 1014.9
20260507045509 4 6 1.6 3.2 0.00 0.00 0.00 60 1014.8
20260507045008 4 351 3.2 3.2 0.00 0.00 0.00 60 1014.9
20260507044508 4 332 1.6 3.2 0.00 0.00 0.00 60 1014.8
20260507044008 4 67 0.0 1.6 0.00 0.00 0.00 60 1014.7
20260507043508 4 76 0.0 1.6 0.00 0.00 0.00 60 1014.8
20260507043012 4 69 1.6 1.6 0.00 0.00 0.00 60 1014.9
20260507042508 4 348 0.0 1.6 0.00 0.00 0.00 60 1014.7
20260507042008 4 323 0.0 1.6 0.00 0.00 0.00 60 1014.5
20260507041008 4 96 1.6 1.6 0.00 0.00 0.00 60 1014.5
20260507040508 4 104 0.0 1.6 0.00 0.00 0.00 60 1014.3
20260507035509 5 40 1.6 3.2 0.00 0.00 0.00 60 1014.5
20260507035008 5 60 1.6 1.6 0.00 0.00 0.00 60 1014.4
20260507034508 5 75 0.0 1.6 0.00 0.00 0.00 60 1014.3
20260507034008 5 272 0.0 1.6 0.00 0.00 0.00 59 1014.2
20260507033508 5 91 1.6 3.2 0.00 0.00 0.00 59 1014.1
20260507033012 5 22 1.6 3.2 0.00 0.00 0.00 59 1014.2
20260507032008 5 359 1.6 4.8 0.00 0.00 0.00 59 1013.9
20260507031508 5 59 1.6 4.8 0.00 0.00 0.00 59 1014.1
20260507031008 5 323 0.0 1.6 0.00 0.00 0.00 59 1014.0
20260507030508 5 106 1.6 1.6 0.00 0.00 0.00 59 1013.9
20260507030012 5 316 1.6 3.2 0.00 0.00 0.00 59 1013.9
20260507025507 5 14 3.2 4.8 0.00 0.00 0.00 59 1013.9
20260507025008 5 9 4.8 11.3 0.00 0.00 0.00 59 1013.8
20260507024508 5 355 4.8 11.3 0.00 0.00 0.00 59 1013.8
20260507024008 5 17 8.0 12.9 0.00 0.00 0.00 59 1013.8
20260507023508 5 5 3.2 9.7 0.00 0.00 0.00 59 1013.8
20260507023011 5 3 3.2 9.7 0.00 0.00 0.00 59 1013.7
20260507022508 5 350 3.2 9.7 0.00 0.00 0.00 59 1013.7
20260507022008 5 358 3.2 9.7 0.00 0.00 0.00 59 1013.8
20260507021508 5 0 4.8 9.7 0.00 0.00 0.00 59 1013.5
20260507021008 5 0 4.8 11.3 0.00 0.00 0.00 59 1013.6
20260507020508 5 26 4.8 12.9 0.00 0.00 0.00 59 1013.5
20260507020011 5 347 3.2 11.3 0.00 0.00 0.00 58 1013.5
20260507015508 5 358 3.2 11.3 0.00 0.00 0.00 58 1013.6
20260507015008 5 16 6.4 11.3 0.00 0.00 0.00 58 1013.6
20260507014508 5 9 4.8 9.7 0.00 0.00 0.00 58 1013.6
20260507013508 6 1 3.2 4.8 0.00 0.00 0.00 58 1013.5
20260507012507 6 6 1.6 8.0 0.00 0.00 0.00 58 1013.4
20260507012007 6 333 4.8 8.0 0.00 0.00 0.00 58 1013.5
20260507011508 6 330 1.6 8.0 0.00 0.00 0.00 58 1013.3
20260507011008 6 325 4.8 9.7 0.00 0.00 0.00 58 1013.3
20260507010507 6 319 4.8 8.0 0.00 0.00 0.00 58 1013.3
20260507010012 6 336 3.2 9.7 0.00 0.00 0.00 58 1013.3
20260507005508 6 339 4.8 9.7 0.00 0.00 0.00 58 1013.2
20260507004508 6 148 1.6 3.2 0.00 0.00 0.00 57 1013.2
20260507004008 6 22 3.2 11.3 0.00 0.00 0.00 57 1013.2
20260507003508 6 1 3.2 11.3 0.00 0.00 0.00 57 1013.2
20260507003012 6 322 3.2 11.3 0.00 0.00 0.00 57 1013.2
20260507002507 6 346 3.2 9.7 0.00 0.00 0.00 57 1013.2
20260507002008 6 349 3.2 9.7 0.00 0.00 0.00 57 1013.1
20260507001508 6 350 3.2 8.0 0.00 0.00 0.00 57 1013.1
20260507001007 6 9 3.2 8.0 0.00 0.00 0.00 57 1013.2
20260507000508 6 29 3.2 8.0 0.00 0.00 0.00 57 1013.2
20260507000011 6 2 4.8 8.0 0.00 0.00 0.00 57 1013.2
20260506235508 6 19 3.2 8.0 0.00 0.00 0.00 56 1013.0
20260506235008 6 60 3.2 8.0 0.00 0.00 0.00 56 1013.1
20260506234508 6 44 4.8 11.3 0.00 0.00 0.00 56 1013.1
20260506234008 6 36 3.2 8.0 0.00 0.00 0.00 56 1013.1
20260506233508 6 43 3.2 8.0 0.00 0.00 0.00 56 1013.2
20260506233011 6 20 4.8 12.9 0.00 0.00 0.00 56 1013.1
20260506232508 6 35 6.4 12.9 0.00 0.00 0.00 56 1013.1
20260506232008 6 26 9.7 14.5 0.00 0.00 0.00 56 1013.0
20260506231507 6 46 9.7 14.5 0.00 0.00 0.00 56 1013.0
20260506230507 6 63 6.4 16.1 0.00 0.00 0.00 55 1012.9
20260506230011 6 44 6.4 14.5 0.00 0.00 0.00 55 1012.9
20260506225508 6 64 11.3 19.3 0.00 0.00 0.00 55 1012.8
20260506225007 6 73 6.4 12.9 0.00 0.00 0.00 55 1012.7
20260506224507 7 63 4.8 12.9 0.00 0.00 0.00 55 1012.7
20260506224008 7 56 4.8 14.5 0.00 0.00 0.00 55 1012.6